World > North America > United States > New York > Perth

Hourly Perth, NY Regional Weather

Feedback E-mail the Weather

Quick WX

Perth, NY Weather Maps

°F °C°F °C
Perth Weather Map
UTC Time: 8/17/2022, 20:17
Your Time:

Perth, NY Regional Weather

Expires:202208172100;;214346
ASUS41 KALY 172010
RWRALY

NEW YORK STATE HOURLY WEATHER ROUNDUP
NATIONAL WEATHER SERVICE ALBANY NY
400 PM EDT WED AUG 17 2022

NOTE: "FAIR" INDICATES FEW OR NO CLOUDS BELOW 12,000 FEET WITH NO
SIGNIFICANT WEATHER AND/OR NO OBSTRUCTIONS TO VISIBILITY.


NYZ032-033-038>043-046>054-057>066-NYZ062>081-082-084-172100-
EAST

  
CITY           SKY/WX    TMP DP  RH WIND       PRES   REMARKS
ALBANY         CLOUDY    77  60  55 NW6       29.96F                  
GLENS FALLS    PTSUNNY   77  54  44 N10       29.96F                  
POUGHKEEPSIE   PTSUNNY   82  52  35 N9        29.93F                  
NEWBURGH       PTSUNNY   79  55  44 N7        29.96F                  
MONTGOMERY     CLOUDY    76  55  48 N8        29.96F                  
ISLIP          PTSUNNY   81  54  39 NW7       29.94F                  
NEW YORK CITY  PTSUNNY   79  52  38 CALM      29.94F                  
CENTRAL PARK   PTSUNNY   79  55  43 CALM      29.98F                  
$$


SKY/WX - Weather  TMP - Temperature  DP - Dew Point  RH - Humidity
WIND - Wind Direction/Speed PRES - Barometric Pressure VSB - Visibility
WCI - Wind Chill Index E13G22 Wind - East Wind 13 mph/Gusts of 22 mph

Trending Headlines

Perth Radar Loop



Perth Quick Facts


National Two Day Weather Forecast


E-mail the Perth Weather Forecast

Voice your opinion or tell us about page issues...